Tracking 19279 objects as of 14-Nov-2018
HD Live streaming from Space Station
objects crossing your sky now

COSMOS 1168

Track COSMOS 1168 now!
10-day predictions
COSMOS 1168 is classified as:


NORAD ID: 11735
Int'l Code: 1980-022A
Perigee: 962.8 km
Apogee: 1,015.1 km
Inclination: 82.9 °
Period: 104.7 minutes
Semi major axis: 7359 km
RCS: 2.0656 m2 (large)
Launch date: March 17, 1980
Source: Commonwealth of Independent States (former USSR) (CIS)
Launch site: PLESETSK MISSILE AND SPACE COMPLEX (PKMTR)
aabbcc
Your satellite tracking list
Your tracking list is empty




NASA's NSSDC Master Catalog

Two Line Element Set (TLE):
1 11735U 80022A   18317.61362392 +.00000036 +00000-0 +21628-4 0  9993
2 11735 082.9458 167.4406 0035517 174.6537 238.4470 13.74970546939114
Source of the keplerian elements: AFSPC